{"data":{"norad_id":67049,"epoch":"2026-05-24T18:47:03.788736Z","epoch_age_seconds":90949,"freshness":"FRESH","line1":"1 67049U 25294V   26144.78268274  .00013972  00000+0  51608-3 0  9993","line2":"2 67049  43.0013 328.6029 0001718 269.0424  91.0231 15.27593817 26432","mean_motion":15.27593817,"eccentricity":0.0001718,"inclination_deg":43.0013,"raan_deg":328.6029,"arg_perigee_deg":269.0424,"mean_anomaly_deg":91.0231,"bstar":0.00051608,"rev_number":2643,"period_min":94.265896076221,"perigee_km":481.8289786194,"apogee_km":484.18646794632,"semimajor_km":6861.1447232829,"source":"CELESTRAK","updated_at":"2026-05-25T13:38:21.440517Z"}}